Location: Bothwell
(41.7170°N, 112.2589°W)
Time: 04:46:50
(UTC+00:00)

Tiros 1 - All Passes

Search period start: 10 May 2026 00:00
Search period end: 20 May 2026 00:00
Orbit: 618 x 648 km, 48.4° (Epoch: 9 May)

Date Brightness Start Highest point End Pass type
(mag) Time Alt. Az. Time Alt. Az. Time Alt. Az.
10 May - 07:12:58 10° SSE 07:15:06 13° SE 07:17:12 10° ESE visible
10 May - 08:51:46 10° SW 08:56:18 65° SSE 09:00:49 10° ENE visible
10 May - 10:33:59 10° W 10:38:21 43° NNW 10:42:44 10° ENE visible
10 May - 12:16:42 10° WNW 12:20:56 36° N 12:25:09 10° ENE daylight
10 May - 13:58:43 10° WNW 14:03:17 74° NNE 14:07:49 10° ESE daylight
10 May - 15:41:03 10° W 15:44:50 26° SW 15:48:38 10° SSE daylight
11 May - 07:32:20 10° SSW 07:36:13 27° SE 07:40:04 10° E visible
11 May - 09:13:13 10° WSW 09:17:48 73° NNW 09:22:23 10° ENE visible
11 May - 10:55:55 10° WNW 11:00:09 36° N 11:04:23 10° ENE visible
11 May - 12:38:20 10° WNW 12:42:43 44° NNE 12:47:05 10° E daylight
11 May - 14:20:16 10° WNW 14:24:46 63° SSW 14:29:16 10° SE daylight
11 May - 16:04:04 10° WSW 16:05:57 12° SW 16:07:51 10° SSW daylight
12 May - 07:53:01 10° SW 07:57:30 53° SE 08:01:57 10° ENE visible
12 May - 09:35:01 10° W 09:39:27 48° NNW 09:43:53 10° ENE visible
12 May - 11:17:47 10° WNW 11:21:59 35° N 11:26:12 10° ENE visible
12 May - 12:59:52 10° WNW 13:04:24 64° NNE 13:08:56 10° ESE daylight
12 May - 14:42:02 10° WNW 14:46:05 32° SW 14:50:09 10° SSE daylight
13 May - 06:33:55 10° S 06:37:27 22° SE 06:40:59 10° E visible
13 May - 08:14:20 10° WSW 08:18:57 85° NNW 08:23:32 10° ENE visible
13 May - 09:56:56 10° WNW 10:01:13 37° N 10:05:29 10° ENE visible
13 May - 11:39:28 10° WNW 11:43:48 41° NNE 11:48:06 10° E visible
13 May - 13:21:23 10° WNW 13:25:57 77° SSW 13:30:29 10° SE daylight
13 May - 15:04:30 10° W 15:07:15 16° SW 15:10:00 10° S daylight
14 May - 06:54:19 10° SSW 06:58:41 43° SE 07:03:03 10° ENE visible
14 May - 08:36:02 10° W 08:40:33 54° NNW 08:45:03 10° ENE visible
14 May - 10:18:50 10° WNW 10:23:03 35° N 10:27:14 10° ENE visible
14 May - 12:01:01 10° WNW 12:05:31 56° NNE 12:10:00 10° E daylight
14 May - 13:43:04 10° WNW 13:47:19 40° SW 13:51:34 10° SSE daylight
15 May - 05:35:38 10° S 05:38:43 18° SE 05:41:47 10° E night (unlit)
15 May - 07:15:28 10° WSW 07:20:05 82° SSE 07:24:41 10° ENE visible
15 May - 08:57:56 10° W 09:02:17 40° N 09:06:36 10° ENE visible
15 May - 10:40:34 10° WNW 10:44:52 38° N 10:49:08 10° ENE visible
15 May - 12:22:31 10° WNW 12:27:06 89° NNE 12:31:40 10° ESE daylight
15 May - 14:05:13 10° W 14:08:31 20° SW 14:11:50 10° S daylight
16 May - 05:55:41 10° SSW 05:59:54 35° SE 06:04:06 10° ENE visible
16 May - 07:37:04 10° WSW 07:41:39 61° NNW 07:46:12 10° ENE visible
16 May - 09:19:51 10° WNW 09:24:06 35° N 09:28:18 10° ENE visible
16 May - 11:02:09 10° WNW 11:06:37 50° NNE 11:11:02 10° E visible
16 May - 12:44:08 10° WNW 12:48:32 49° SW 12:52:55 10° SE daylight
17 May - 04:37:35 10° SSE 04:40:00 14° SE 04:42:24 10° E night (unlit)
17 May - 06:16:39 10° SW 06:21:15 69° SSE 06:25:49 10° ENE visible
17 May - 07:58:56 10° W 08:03:20 43° NNW 08:07:44 10° ENE visible
17 May - 09:41:39 10° WNW 09:45:55 36° N 09:50:09 10° ENE visible
17 May - 11:23:40 10° WNW 11:28:15 77° NNE 11:32:47 10° ESE visible
17 May - 13:06:04 10° W 13:09:47 25° SW 13:13:29 10° SSE daylight
18 May - 04:57:08 10° SSW 05:01:07 29° SE 05:05:06 10° ENE night (unlit)
18 May - 06:38:08 10° WSW 06:42:45 71° NNW 06:47:21 10° ENE visible
18 May - 08:20:52 10° WNW 08:25:08 36° N 08:29:22 10° ENE visible
18 May - 10:03:16 10° WNW 10:07:42 45° NNE 10:12:05 10° E visible
18 May - 11:45:13 10° WNW 11:49:44 61° SSW 11:54:11 10° SE daylight
18 May - 13:29:17 10° WSW 13:30:52 12° SW 13:32:27 10° SSW daylight
19 May - 03:40:06 10° SE 03:41:16 11° SE 03:42:26 10° ESE visible
19 May - 05:17:52 10° SW 05:22:25 56° SE 05:26:56 10° ENE visible
19 May - 06:59:56 10° W 07:04:24 47° NNW 07:08:52 10° ENE visible
19 May - 08:42:42 10° WNW 08:46:57 35° N 08:51:11 10° ENE visible
19 May - 10:24:48 10° WNW 10:29:22 66° NNE 10:33:54 10° ESE visible
19 May - 12:07:01 10° WNW 12:11:01 31° SW 12:15:01 10° SSE daylight
